Weather Roundup
Issued by NWS Springfield, MO

Home | Current Version | Previous Version | Graphics & Text | Print | Product List | Glossary On
Versions: 1 2 3 4 5 6 7 8 9 10 11 12 13 14 15 16 17 18 19 20 21 22 23 24 25 26 27 28 29 30 31 32 33 34 35 36 37 38 39 40 41 42 43 44 45 46 47 48 49 50
000
NZUS99 KSGF 261207
HRRSGF

HOURLY WEATHER
NATIONAL WEATHER SERVICE SPRINGFIELD MO
700 AM CDT FRI MAY 26 2017

......SGF CWA......

CITY           SKY/WX    TMP DP  RH WIND       PRES   REMARKS
SPRINGFIELD    PTSUNNY   67  60  78 SE15      29.73R
6HR MIN TEMP:  67; 6HR MAX TEMP:  69; 6HR PCP: TRACE;

JOPLIN         MOCLDY    66  61  84 E7        29.69R
6HR MIN TEMP:  65; 6HR MAX TEMP:  71;

WEST PLAINS    CLOUDY    64  60  87 SE7       29.80R
6HR MIN TEMP:  62; 6HR MAX TEMP:  64; 6HR PCP: TRACE;

ROLLA          LGT RAIN  62  60  93 SE20G31   29.67F
6HR MIN TEMP:  59; 6HR MAX TEMP:  64; 6HR PCP:  0.07;

OSAGE BEACH    PTSUNNY   62  60  93 S10       29.74R
BRANSON        PTSUNNY   63  59  88 E12G18    29.76S

......SURROUNDING SGF CWA......

CITY           SKY/WX    TMP DP  RH WIND       PRES   REMARKS
CHANUTE        PTCLDY    65  59  81 SE10      29.64S
PARSONS        PTCLDY    66  60  81 SE6       29.65S
COFFEYVILLE    CLOUDY    65  64  97 E8        29.65R
EMPORIA        CLEAR     62  60  93 CALM      29.67R
GROVE OK       MOCLDY    68  63  83 E3        29.66R
ROGERS AR      MOCLDY    66  62  87 SE7       29.71R
SILOAM SPRINGS MOCLDY    70  57  64 S12       29.69R
HARRISON AR    PTSUNNY   63  61  93 NE3       29.77R
NEAR YELLVILLE CLOUDY    64  57  77 E5        29.75R

......KANSAS AND MISSOURI......

CITY           SKY/WX    TMP DP  RH WIND       PRES   REMARKS
KANSAS CTY INT MOSUNNY   64  60  87 NW5       29.70R
DOWNTOWN KC    SUNNY     66  61  84 NW6       29.68R
COLUMBIA       CLOUDY    62  59  90 SE7       29.71F
SEDALIA        SUNNY     64  62  93 S21       29.64F
ST JOSEPH      SUNNY     62  61  96 CALM      29.68R
ST LOUIS       CLOUDY    67  56  67 S5        29.81R
SPIRIT OF STL  PTSUNNY   60  58  92 CALM      29.81R
KIRKSVILLE     CLOUDY    60  57  89 SE10      29.66R
WICHITA        PTCLDY    64  61  90 N15       29.67R
TOPEKA         CLEAR     61  61 100 SE3       29.69R
OLATHE         SUNNY     63  61  93 NW6       29.67R

......TENNESSEE......

CITY           SKY/WX    TMP DP  RH WIND       PRES   REMARKS
MEMPHIS        MOSUNNY   67  61  81 S12       29.88S
NASHVILLE      MOSUNNY   59  54  83 S6        29.96R

......ARKANSAS.......

CITY           SKY/WX    TMP DP  RH WIND       PRES   REMARKS
FAYETTEVILLE   MOCLDY    68  62  81 VRB3      29.71R
FT SMITH       MOCLDY    66  61  84 NE3       29.70R
LITTLE ROCK    PTSUNNY   68  65  90 S15G22    29.80S

......OKLAHOMA.......

CITY           SKY/WX    TMP DP  RH WIND       PRES   REMARKS
TULSA          MOCLDY    72  63  73 S12       29.57F
PONCA CITY     PTCLDY    64  60  87 NE3       29.61R
MCALESTER      CLEAR     71  63  75 S13G29    29.66R
OKLAHOMA CITY  PTCLDY    72  62  71 S14       29.60R

......IOWA............

CITY           SKY/WX    TMP DP  RH WIND       PRES   REMARKS
DES MOINES     CLOUDY    61  53  75 E6        29.69R
QUAD CITIES    SUNNY     59  55  87 E7        29.78R

......ILLINOIS........

CITY           SKY/WX    TMP DP  RH WIND       PRES   REMARKS
QUINCY         CLOUDY    62  54  74 S8        29.77R
CHICAGO        PTSUNNY   58  52  80 CALM      29.84S



USA.gov is the U.S. government's official web portal to all federal, state and local government web resources and services.